AirNav   Pilot Hours Calculator
 
 1156 users online  

2MU1 St Louis Children's Hospital Heliport
Saint Louis, Missouri, USA

GOING TO SAINT LOUIS?


FAA INFORMATION EFFECTIVE 31 DECEMBER 2020

Location

FAA Identifier: 2MU1
Lat/Long: 38-38-16.7000N 090-15-53.6500W
38-38.278333N 090-15.894167W
38.6379722,-90.2649028
(estimated)
Elevation: 610 ft. / 186 m (estimated)
Variation: 01E (1995)
Time zone: UTC -6 (UTC -5 during Daylight Saving Time)
Zip code: 63110

Heliport Operations

Heliport use: Private use, MEDICAL USE.
Activation date: 07/1997
Control tower: no
ARTCC: KANSAS CITY CENTER
FSS: SAINT LOUIS FLIGHT SERVICE STATION
Attendance: ON CALL
Wind indicator: yes
Segmented circle: no
Lights: FOR PERIMETER LGTS CALL 417-434-6000.

Heliport Communications

WX ASOS at CPS (7 nm SE): PHONE 618-332-0001
WX ASOS at STL (8 nm NW): 125.025 (314-890-4790)
WX ASOS at SUS (18 nm W): 134.8 (314-890-7255)
WX AWOS-3 at ALN (18 nm NE): 128.0 (618-259-7231)
WX ASOS at SET (19 nm NW): 118.075 (636-250-4590)

Nearby radio navigation aids

VOR radial/distance  VOR name  Freq  Var
STLr142/16.8ST LOUIS VORTAC117.4001E
TOYr245/17.3TROY VORTAC116.0004E
FTZr091/33.3FORISTELL VORTAC110.8005E

 
NDB name  Hdg/Dist  Freq  Var  ID
ACORE306/12.035000ECP -.-. .--.
EAVES101/13.422701WFZ ..-. --..
CIVIC MEMORIAL214/18.126301WCVM -.-. ...- --

Heliport Services

Runway Information

Helipad H1

Dimensions: 60 x 60 ft. / 18 x 18 m
Surface: concrete
Runway edge lights: PERI
Latitude: 38-38.278333N
Longitude: 090-15.894167W
Elevation: 610.0 ft.
Traffic pattern: leftleft

Heliport Ownership and Management from official FAA records

Ownership: Privately-owned
Owner: SAINT LOUIS CHILDREN'S HOSP.
1 CHILDREN'S PLACE
SAINT LOUIS, MO 63110-1077
Phone 314-454-6000
Manager: FACILITIES MANAGER
1 CHILDREN'S PLACE
SAINT LOUIS, MO 63110-1077
Phone 314-454-6000

Additional Remarks

ROOFTOP.
OWNER DESIRES HELIPORT NOT BE CHARTED.
FOR CD CTC ST LOUIS APCH AT 314-890-1018.

Instrument Procedures

There are no published instrument procedures at 2MU1.

Some nearby airports with instrument procedures:

KCPS - St Louis Downtown Airport (7 nm SE)
KSTL - St Louis Lambert International Airport (8 nm NW)
1H0 - Creve Coeur Airport (13 nm NW)
KSUS - Spirit of St Louis Airport (18 nm W)
KALN - St Louis Regional Airport (18 nm NE)
KSET - St Charles County Smartt Airport (19 nm NW)
 
Loc | Ops | Rwys | IFR | FBO | Links
Com | Nav | Svcs | Stats | Notes
Area around 2MU1 (St Louis Children's Hospital Heliport)
 
Road maps at: MapQuest Bing Google
 
Aerial photo
No photo
 
Sectional chart

 
Airport distance calculator
Flying to St Louis Children's Hospital Heliport? Find the distance to fly.

From to 2MU1

Sunrise and sunset
Times for 16-Jan-2021
 Local
(UTC-6)
 Zulu
(UTC)
Morning civil twilight06:4912:49
Sunrise07:1813:18
Sunset17:0423:04
Evening civil twilight17:3323:33

Current date and time
Zulu (UTC)  16-Jan-2021 17:12:26
Local (UTC-6)  16-Jan-2021 11:12:26
 
METAR
KCPS 
7nm SE 
161653Z 27012G21KT 10SM OVC020 02/M01 A2984 RMK AO2 SLP106 T00221006
KSTL 
8nm NW 
161651Z 27013KT 10SM OVC014 02/M01 A2984 RMK AO2 SLP112 T00221011
KSUS 
18nm W 
161654Z 26010KT 6SM HZ OVC012 02/M01 A2984 RMK AO2 SLP112 T00171011
KALN 
18nm NE 
161650Z 25013G20KT 8SM OVC014 01/01 A2982
KSET 
19nm NW 
161654Z AUTO 28015G24KT 9SM OVC012 02/M01 A2983 RMK AO2 SLP103 T00221011 $
TAF
KCPS 
7nm SE 
161506Z 1615/1712 28012G18KT P6SM OVC015 TEMPO 1616/1619 -SN OVC009 FM161900 28010KT P6SM OVC015 FM170500 28007KT P6SM -SN OVC010
KSTL 
8nm NW 
161502Z 1615/1718 28012G18KT P6SM OVC015 TEMPO 1616/1619 -SN OVC009 FM161900 28011KT P6SM OVC015 FM170500 28009KT P6SM -SN OVC010
KSUS 
18nm W 
161504Z 1615/1712 28012G18KT P6SM OVC015 TEMPO 1616/1619 -SN OVC009 FM161900 28010KT P6SM OVC015 FM170500 28007KT P6SM -SN OVC010
NOTAMs
Click for the latest NOTAMs
NOTAMs are issued by the DoD/FAA and will open in a separate window not controlled by AirNav.

 

 
 

Would you like to see your business listed on this page?

 If your business provides an interesting product or service to pilots, flight crews, aircraft, or users of the St Louis Children's Hospital Heliport, you should consider listing it here.  To start the listing process, click on the button below
 
Add a business
 

Other Pages about St Louis Children's Hospital Heliport

Update a link
 
Copyright © AirNav, LLC. All rights reserved. Privacy Policy  Contact